Weather History for Blytheville Muni Airport, AR

Change the Weather History Date:

Tuesday, January 28, 2014

  Actual Average Record
Temperature  
Mean Temperature 18 °F -  
Max Temperature 23 °F 47 °F 74 °F (1975)
Min Temperature 12 °F 29 °F 2 °F (1963)
Degree Days  
Heating Degree Days 48    
Moisture  
Dew Point -5 °F    
Average Humidity 40    
Maximum Humidity 51    
Minimum Humidity 25    
Precipitation  
Precipitation 0.00 in - - ()
Sea Level Pressure  
Sea Level Pressure 30.48 in    
Wind  
Wind Speed 14 mph (NNE)    
Max Wind Speed 22 mph    
Max Gust Speed 24 mph    
Visibility 10 miles    
Events      
Averages and records for this station are not official NWS values.
T = Trace of Precipitation, MM = Missing Value Source: NWS Daily Summary

Daily Weather History Graph

Daily Weather History Graph

Search for Another Location

Airport:

Trip Planner

Search our weather history database for the weather conditions in past years. The results will help you decide how hot, cold, wet, or windy it might be!

Date:

Astronomy

Jan. 28, 2014 Rise Set
Actual Time 7:02 AM CST 5:22 PM CST
Civil Twilight 6:35 AM CST 5:49 PM CST
Nautical Twilight 6:04 AM CST 6:20 PM CST
Astronomical Twilight 5:34 AM CST 6:50 PM CST
Moon 4:43 AM CST (1/28) 3:13 PM CST (1/28)
Length of Visible Light 11h 13m
Length of Day
10h 19m
Waning Crescent, 7% of the Moon is Illuminated
Jan 28
Waning Crescent
Jan 30
New
Feb 6
First Quarter
Feb 14
Full
Feb 22
Last Quarter

Hourly Weather History & Observations

Time (CST) Temp. Windchill Dew Point Humidity Pressure Visibility Wind Dir Wind Speed Gust Speed Precip Events Conditions
12:53 AM 17.1 °F 2.0 °F -4.0 °F 39% 30.47 in 10.0 mi NE 16.1 mph - N/A   Overcast
1:53 AM 17.1 °F 3.0 °F -2.0 °F 43% 30.48 in 10.0 mi NNE 13.8 mph - N/A   Overcast
2:53 AM 16.0 °F 0.1 °F -4.0 °F 41% 30.48 in 10.0 mi NE 17.3 mph 21.9 mph N/A   Overcast
3:53 AM 15.1 °F -0.6 °F -4.0 °F 43% 30.47 in 10.0 mi NE 16.1 mph 24.2 mph N/A   Overcast
4:53 AM 14.0 °F -4.3 °F -4.0 °F 45% 30.47 in 10.0 mi NNE 21.9 mph - N/A   Overcast
5:53 AM 14.0 °F -3.4 °F -6.0 °F 41% 30.50 in 10.0 mi NNE 19.6 mph - N/A   Overcast
6:53 AM 12.9 °F -4.4 °F -5.1 °F 45% 30.51 in 10.0 mi North 18.4 mph - N/A   Overcast
7:53 AM 12.9 °F -4.4 °F -4.0 °F 47% 30.51 in 10.0 mi North 18.4 mph - N/A   Overcast
8:53 AM 14.0 °F -1.4 °F -5.1 °F 43% 30.54 in 10.0 mi North 15.0 mph - N/A   Mostly Cloudy
9:53 AM 15.1 °F -0.6 °F -6.0 °F 39% 30.53 in 10.0 mi NNE 16.1 mph - N/A   Mostly Cloudy
10:53 AM 18.0 °F 3.1 °F -6.0 °F 35% 30.54 in 10.0 mi North 16.1 mph - N/A   Mostly Cloudy
11:53 AM 19.0 °F 5.0 °F -5.1 °F 34% 30.52 in 10.0 mi North 15.0 mph - N/A   Mostly Cloudy
12:53 PM 19.9 °F 6.7 °F -6.0 °F 32% 30.49 in 10.0 mi North 13.8 mph 19.6 mph N/A   Partly Cloudy
1:53 PM 23.0 °F 11.7 °F -6.0 °F 28% 30.45 in 10.0 mi North 11.5 mph - N/A   Mostly Cloudy
2:53 PM 23.0 °F 12.4 °F -8.0 °F 25% 30.43 in 10.0 mi NNE 10.4 mph - N/A   Clear
3:53 PM 21.9 °F 9.8 °F -9.0 °F 25% 30.42 in 10.0 mi North 12.7 mph - N/A   Clear
4:53 PM 19.9 °F 11.1 °F -8.0 °F 29% 30.43 in 10.0 mi North 6.9 mph - N/A   Clear
5:53 PM 14.0 °F 6.5 °F -6.0 °F 41% 30.43 in 10.0 mi NNE 4.6 mph - N/A   Clear
6:53 PM 12.0 °F 2.7 °F -5.1 °F 46% 30.44 in 10.0 mi NE 5.8 mph - N/A   Clear
7:53 PM 12.9 °F 6.9 °F -4.0 °F 47% 30.46 in 10.0 mi ENE 3.5 mph - N/A   Clear
8:53 PM 14.0 °F - -6.0 °F 41% 30.46 in 10.0 mi Calm Calm - N/A   Clear
9:53 PM 12.9 °F - -4.0 °F 47% 30.46 in 10.0 mi Calm Calm - N/A   Clear
10:53 PM 12.0 °F - -2.9 °F 51% 30.47 in 10.0 mi Calm Calm - N/A   Clear
11:53 PM 12.0 °F - -2.9 °F 51% 30.46 in 10.0 mi Calm Calm - N/A   Clear